{"data":{"norad_id":48643,"epoch":"2026-09-19T19:24:31.508064Z","epoch_age_seconds":96816,"freshness":"FRESH","line1":"1 48643U 21044F   26262.80869801 -.00000092  00000+0  88099-5 0  9994","line2":"2 48643  53.1587 290.4741 0001215  93.6391 266.4749 15.31693279293573","mean_motion":15.31693279,"eccentricity":0.0001215,"inclination_deg":53.1587,"raan_deg":290.4741,"arg_perigee_deg":93.6391,"mean_anomaly_deg":266.4749,"bstar":8.8099e-6,"rev_number":29357,"period_min":94.013600486655,"perigee_km":469.927889261,"apogee_km":471.59217123935,"semimajor_km":6848.8970302502,"source":"CELESTRAK","updated_at":"2026-09-20T09:00:39.140539Z"}}